Вернуться в каталог

GEESAT 6-06

АктивенНаукаLEO
NORAD 65718·PAYLOAD·🇨🇳 China

Запущен Sep 24, 2025 с Yellow Sea Launch Area

Loading…

Ближайшие Пролёты (ближайшие 24 часа)

TLE

СвежийSource: Space-Track

Эпоха: Sep 14, 2026, 08:43 UTC

1 65718U 25214G   26257.36369878  .00001030  00000-0  15331-3 0  9993
2 65718  49.9888 253.1202 0008450 215.6282 144.4093 14.82863243 52770

Отслеживайте GEESAT 6-06 в реальном времени с AllMySat

Download on the App Store